Weather History for Beaufort, NC

Change the Weather History Date:

Tuesday, October 21, 2014

  Actual Average Record
Temperature  
Mean Temperature 66 °F -  
Max Temperature 75 °F 73 °F 83 °F (1965)
Min Temperature 59 °F 50 °F 34 °F (1974)
Cooling Degree Days 1    
Growing Degree Days 16 (Base 50)    
Moisture  
Dew Point 60 °F    
Average Humidity 81    
Maximum Humidity 100    
Minimum Humidity 52    
Precipitation  
Precipitation 0.01 in - - ()
Sea Level Pressure  
Sea Level Pressure 29.91 in    
Wind  
Wind Speed 5 mph (WSW)    
Max Wind Speed 14 mph    
Max Gust Speed -    
Visibility 9 miles    
Events      
Averages and records for this station are not official NWS values.
T = Trace of Precipitation, MM = Missing Value Source: NWS Daily Summary

Daily Weather History Graph

Daily Weather History Graph

Search for Another Location

Airport:

Trip Planner

Search our weather history database for the weather conditions in past years. The results will help you decide how hot, cold, wet, or windy it might be!

Date:

Astronomy

Oct. 21, 2014 Rise Set
Actual Time 7:17 AM EDT 6:24 PM EDT
Civil Twilight 6:51 AM EDT 6:50 PM EDT
Nautical Twilight 6:22 AM EDT 7:19 PM EDT
Astronomical Twilight 5:53 AM EDT 7:48 PM EDT
Moon 5:04 AM EDT (10/21) 5:13 PM EDT (10/21)
Length of Visible Light 11h 58m
Length of Day
11h 07m
Waning Crescent, 5% of the Moon is Illuminated
Oct 21
Waning Crescent
Oct 23
New
Oct 30
First Quarter
Nov 6
Full
Nov 14
Last Quarter

Hourly Weather History & Observations

Time (EDT) Temp. Dew Point Humidity Pressure Visibility Wind Dir Wind Speed Gust Speed Precip Events Conditions
12:58 AM 64.9 °F 62.1 °F 90% 29.97 in 10.0 mi ESE 5.8 mph - 0.00 in   Scattered Clouds
1:58 AM 66.0 °F 62.1 °F 87% 29.95 in 10.0 mi NE 3.5 mph - N/A   Overcast
2:58 AM 64.0 °F 63.0 °F 96% 29.94 in 10.0 mi East 3.5 mph - 0.01 in   Mostly Cloudy
3:44 AM 64.0 °F 63.0 °F 96% 29.93 in 10.0 mi NW 8.1 mph - N/A   Mostly Cloudy
3:58 AM 64.0 °F 63.0 °F 96% 29.93 in 10.0 mi NNW 4.6 mph - N/A   Mostly Cloudy
4:58 AM 62.1 °F 61.0 °F 96% 29.94 in 10.0 mi NNE 3.5 mph - N/A   Clear
5:29 AM 60.1 °F 60.1 °F 100% 29.94 in 2.5 mi Calm Calm - N/A   Clear
5:36 AM 61.0 °F 61.0 °F 100% 29.93 in 3.0 mi Calm Calm - N/A   Clear
5:55 AM 59.0 °F 59.0 °F 100% 29.94 in 1.8 mi Calm Calm - N/A   Partly Cloudy
5:56 AM 59.0 °F 59.0 °F 100% 29.94 in 1.8 mi Calm Calm - N/A   Partly Cloudy
6:05 AM 61.0 °F 60.1 °F 97% 29.94 in 5.0 mi Calm Calm - N/A   Clear
6:58 AM 60.1 °F 59.0 °F 96% 29.95 in 10.0 mi Calm Calm - N/A   Clear
7:58 AM 60.1 °F 59.0 °F 96% 29.95 in 10.0 mi West 3.5 mph - N/A   Clear
8:58 AM 66.0 °F 60.1 °F 81% 29.94 in 10.0 mi WNW 9.2 mph - N/A   Clear
9:58 AM 68.0 °F 60.1 °F 76% 29.94 in 10.0 mi WNW 6.9 mph - N/A   Clear
10:58 AM 71.1 °F 59.0 °F 66% 29.92 in 10.0 mi WNW 4.6 mph - N/A   Clear
11:58 AM 73.9 °F 55.0 °F 52% 29.91 in 10.0 mi NW 6.9 mph - N/A   Clear
12:58 PM 73.9 °F 57.0 °F 55% 29.89 in 10.0 mi SW 8.1 mph - N/A   Partly Cloudy
1:58 PM 73.0 °F 59.0 °F 61% 29.87 in 10.0 mi SSW 11.5 mph - N/A   Clear
2:58 PM 73.0 °F 60.1 °F 64% 29.86 in 10.0 mi SSW 12.7 mph - N/A   Clear
3:58 PM 73.0 °F 61.0 °F 66% 29.84 in 10.0 mi SSW 11.5 mph - N/A   Clear
4:58 PM 72.0 °F 59.0 °F 64% 29.84 in 10.0 mi SSW 13.8 mph - N/A   Clear
5:58 PM 71.1 °F 60.1 °F 68% 29.85 in 10.0 mi SW 11.5 mph - N/A   Clear
6:58 PM 68.0 °F 59.0 °F 73% 29.85 in 10.0 mi SW 5.8 mph - N/A   Clear
7:58 PM 69.1 °F 59.0 °F 70% 29.87 in 10.0 mi SW 6.9 mph - N/A   Clear
8:58 PM 69.1 °F 59.0 °F 70% 29.87 in 10.0 mi WSW 5.8 mph - N/A   Partly Cloudy
9:58 PM 69.1 °F 61.0 °F 75% 29.87 in 10.0 mi WSW 6.9 mph - N/A   Scattered Clouds
10:58 PM 68.0 °F 61.0 °F 78% 29.86 in 10.0 mi WSW 8.1 mph - N/A   Clear
11:58 PM 66.9 °F 60.1 °F 79% 29.84 in 10.0 mi WSW 10.4 mph - N/A   Clear